FENGYUN 1C DEB

Satellite information

Favourite Embed

Satellite Type and Status

DEBRISIN ORBIT

Key statistics

Satellite FENGYUN 1C DEB at a glance.

Uptime

9667

Days in orbit

Revolutions

≈ 14.1

Per day

Orbit

SSO

Sun Synchronous Orbit

Inclination

98.7

Latest

Satellite identification and parameters

Extended collection of information and parameters for FENGYUN 1C DEB.

Object identification

Identified? True

Debris? True

Object name: FENGYUN 1C DEB

International designator: 1999-025BEY

Object number (NORAD): 31054

Object ID (CCSDS): 31054

Country: PEOPLES REPUBLIC OF CHINA (PRC)

Current information (Y/N): Y

RCS size: SMALL

Orbital parameters

Period: 101.974 minutes

Inclination: 98.694 deg

SMA: 7230.236 km

Apoapsis: 858.408 km

Periapsis: 845.794 km

RAAN: 313.4991 deg

Eccentricy: 0.00087235

Argument of periapsis: 257.3286 deg

Mean anomaly: 131.246 deg

Mean motion: 14.12127954 rev/day

Mean motion (dot): 0.00000307 rev/day2

B* drag term: 0.00019030282 1/REarth

Two-line elements (TLE)

Creation date: Oct. 26, 2025, 10:54 a.m.

Reference frame: TEME

Reference center: EARTH

Epoch: Oct. 26, 2025, 12:18 a.m. UTC

TLE line 0: 0 FENGYUN 1C DEB

TLE line 1: 1 31054U 99025BEY 25299.01302010 .00000307 00000-0 19030-3 0 9998

TLE line 2: 2 31054 98.6940 313.4991 0008723 257.3286 131.2460 14.12127954960901

Live tracking on map

Real-time ground track for satellite FENGYUN 1C DEB.

In-orbit conjunctions

A list of the most updated potential collisions computed for object FENGYUN 1C DEB.

Target Orbit TCA Probability of collision Miss distance Type
FENGYUN 1C DEB SSO 2024-10-23 23:53:07 0.0002915606 59.0 (m) DEBRIS

Associated space launch

Chinese polar orbiting meteorological satellite

FENGYUN 1C DEB was lifted into orbit during the mission ‘Long March 4B | Feng Yun 1C’, on board a Long March 4B space rocket.

The launch took place on May 10, 1999, 1:33 a.m. from Launch Complex 7.

For more information about the launch, click the button.

Launch to space Long March 4B | Feng Yun 1C
Long March 4B | Feng Yun 1C

Agency: N/A

Status: Launch Successful

Launch date: May 10, 1999, 1:33 a.m. UTC

Rocket: Long March 4B

Launch pad: Launch Complex 7

Location: Taiyuan Satellite Launch Center, People's Republic of China

...

Latest news about this satellite

There are no fresh news available about this satellite. Check back as we update our databases every day.


Newsletter sign-up

Weekly statistics, charts and insights to help you stay on top of the space industry.